Time,TemperatureF,DewpointF,PressureIn,WindDirection,WindDirectionDegrees,WindSpeedMPH,WindSpeedGustMPH,Humidity,HourlyPrecipIn,Conditions,Clouds,dailyrainin,SoftwareType,DateUTC
2013-03-27 00:02:00,32.2,20.6,29.94,WNW,283,4.0,10.0,62,0.00,,,0.00,Wunderground v.1.15,2013-03-27 06:02:00,
2013-03-27 00:07:00,32.3,20.3,29.94,West,274,4.0,10.0,61,0.00,,,0.00,Wunderground v.1.15,2013-03-27 06:07:00,
2013-03-27 00:12:00,32.2,20.6,29.94,West,273,4.0,10.0,62,0.00,,,0.00,Wunderground v.1.15,2013-03-27 06:12:00,
2013-03-27 00:17:00,32.0,20.4,29.94,West,264,5.0,10.0,62,0.00,,,0.00,Wunderground v.1.15,2013-03-27 06:17:00,
2013-03-27 00:27:00,31.5,20.3,29.94,WNW,282,4.0,10.0,63,0.00,,,0.00,Wunderground v.1.15,2013-03-27 06:27:00,
2013-03-27 00:32:00,31.6,20.1,29.94,WSW,239,3.0,10.0,62,0.00,,,0.00,Wunderground v.1.15,2013-03-27 06:32:00,
2013-03-27 00:37:00,31.7,20.2,29.94,West,277,3.0,10.0,62,0.00,,,0.00,Wunderground v.1.15,2013-03-27 06:37:00,
2013-03-27 00:47:00,31.7,20.2,29.95,WSW,250,3.0,10.0,62,0.00,,,0.00,Wunderground v.1.15,2013-03-27 06:47:00,
2013-03-27 00:52:00,31.7,20.2,29.94,West,259,4.0,10.0,62,0.00,,,0.00,Wunderground v.1.15,2013-03-27 06:52:00,
2013-03-27 00:57:00,31.7,20.2,29.95,WNW,284,4.0,10.0,62,0.00,,,0.00,Wunderground v.1.15,2013-03-27 06:57:00,
2013-03-27 01:02:00,31.7,20.2,29.95,WSW,244,3.0,10.0,62,0.00,,,0.00,Wunderground v.1.15,2013-03-27 07:02:00,
2013-03-27 01:07:00,31.8,19.9,29.95,West,266,3.0,10.0,61,0.00,,,0.00,Wunderground v.1.15,2013-03-27 07:07:00,
2013-03-27 01:12:00,31.9,20.0,29.94,West,259,4.0,10.0,61,0.00,,,0.00,Wunderground v.1.15,2013-03-27 07:12:00,
2013-03-27 01:17:00,31.7,19.8,29.95,West,271,4.0,10.0,61,0.00,,,0.00,Wunderground v.1.15,2013-03-27 07:17:00,
2013-03-27 01:27:00,31.5,19.6,29.94,WNW,283,4.0,10.0,61,0.00,,,0.00,Wunderground v.1.15,2013-03-27 07:27:00,
2013-03-27 01:32:00,31.4,19.5,29.94,WNW,285,4.0,4.0,61,0.00,,,0.00,Wunderground v.1.15,2013-03-27 07:32:00,
2013-03-27 01:37:00,31.3,19.8,29.94,West,270,4.0,5.0,62,0.00,,,0.00,Wunderground v.1.15,2013-03-27 07:37:00,
2013-03-27 01:42:00,31.3,19.8,29.94,WSW,238,4.0,10.0,62,0.00,,,0.00,Wunderground v.1.15,2013-03-27 07:42:00,
2013-03-27 01:47:00,31.0,19.5,29.94,WSW,245,4.0,10.0,62,0.00,,,0.00,Wunderground v.1.15,2013-03-27 07:47:00,
2013-03-27 01:57:00,30.8,19.3,29.94,SW,236,4.0,10.0,62,0.00,,,0.00,Wunderground v.1.15,2013-03-27 07:57:00,
2013-03-27 02:02:00,30.5,19.4,29.94,West,263,5.0,5.0,63,0.00,,,0.00,Wunderground v.1.15,2013-03-27 08:02:00,
2013-03-27 02:07:00,30.4,19.3,29.94,WSW,250,5.0,10.0,63,0.00,,,0.00,Wunderground v.1.15,2013-03-27 08:07:00,
2013-03-27 02:12:00,30.6,19.1,29.95,West,265,5.0,5.0,62,0.00,,,0.00,Wunderground v.1.15,2013-03-27 08:12:00,
2013-03-27 02:22:00,30.6,19.1,29.94,West,270,4.0,10.0,62,0.00,,,0.00,Wunderground v.1.15,2013-03-27 08:22:00,
2013-03-27 02:27:00,30.7,19.2,29.94,West,280,5.0,10.0,62,0.00,,,0.00,Wunderground v.1.15,2013-03-27 08:27:00,
2013-03-27 02:32:00,30.5,19.0,29.94,WSW,240,5.0,5.0,62,0.00,,,0.00,Wunderground v.1.15,2013-03-27 08:32:00,
2013-03-27 02:47:00,30.2,18.7,29.94,West,260,5.0,10.0,62,0.00,,,0.00,Wunderground v.1.15,2013-03-27 08:47:00,
2013-03-27 02:52:00,30.1,18.6,29.94,WSW,238,5.0,5.0,62,0.00,,,0.00,Wunderground v.1.15,2013-03-27 08:52:00,
2013-03-27 02:57:00,30.0,18.9,29.95,SSW,207,5.0,6.0,63,0.00,,,0.00,Wunderground v.1.15,2013-03-27 08:57:00,
2013-03-27 03:02:00,29.7,18.6,29.94,NW,314,5.0,5.0,63,0.00,,,0.00,Wunderground v.1.15,2013-03-27 09:02:00,
2013-03-27 03:07:00,29.5,18.8,29.94,WNW,284,5.0,6.0,64,0.00,,,0.00,Wunderground v.1.15,2013-03-27 09:07:00,
2013-03-27 03:17:00,29.4,18.7,29.94,West,264,4.0,10.0,64,0.00,,,0.00,Wunderground v.1.15,2013-03-27 09:17:00,
2013-03-27 03:22:00,29.5,18.4,29.94,West,273,4.0,10.0,63,0.00,,,0.00,Wunderground v.1.15,2013-03-27 09:22:00,
2013-03-27 03:27:00,29.3,18.6,29.94,WSW,249,5.0,10.0,64,0.00,,,0.00,Wunderground v.1.15,2013-03-27 09:27:00,
2013-03-27 03:32:00,29.4,18.3,29.94,SW,226,5.0,5.0,63,0.00,,,0.00,Wunderground v.1.15,2013-03-27 09:32:00,
2013-03-27 03:42:00,29.3,18.3,29.94,WSW,249,5.0,10.0,63,0.00,,,0.00,Wunderground v.1.15,2013-03-27 09:42:00,
2013-03-27 03:47:00,29.3,18.3,29.94,West,274,5.0,10.0,63,0.00,,,0.00,Wunderground v.1.15,2013-03-27 09:47:00,
2013-03-27 03:52:00,29.3,18.3,29.94,West,263,5.0,10.0,63,0.00,,,0.00,Wunderground v.1.15,2013-03-27 09:52:00,
2013-03-27 03:57:00,29.2,18.2,29.94,West,277,5.0,10.0,63,0.00,,,0.00,Wunderground v.1.15,2013-03-27 09:57:00,
2013-03-27 04:02:00,29.2,18.2,29.94,West,269,4.0,10.0,63,0.00,,,0.00,Wunderground v.1.15,2013-03-27 10:02:00,
2013-03-27 04:07:00,29.1,18.1,29.94,WNW,291,4.0,10.0,63,0.00,,,0.00,Wunderground v.1.15,2013-03-27 10:07:00,
2013-03-27 04:12:00,28.7,18.1,29.94,West,272,4.0,10.0,64,0.00,,,0.00,Wunderground v.1.15,2013-03-27 10:12:00,
2013-03-27 04:22:00,28.7,18.1,29.94,WNW,302,5.0,5.0,64,0.00,,,0.00,Wunderground v.1.15,2013-03-27 10:22:00,
2013-03-27 04:27:00,28.6,18.3,29.94,West,276,5.0,8.0,65,0.00,,,0.00,Wunderground v.1.15,2013-03-27 10:27:00,
2013-03-27 04:32:00,28.5,18.2,29.94,West,274,5.0,10.0,65,0.00,,,0.00,Wunderground v.1.15,2013-03-27 10:32:00,
2013-03-27 04:37:00,28.3,18.0,29.94,WNW,284,5.0,10.0,65,0.00,,,0.00,Wunderground v.1.15,2013-03-27 10:37:00,
2013-03-27 04:42:00,28.2,17.9,29.94,WNW,297,5.0,10.0,65,0.00,,,0.00,Wunderground v.1.15,2013-03-27 10:42:00,
2013-03-27 04:47:00,28.3,18.0,29.94,WNW,291,5.0,10.0,65,0.00,,,0.00,Wunderground v.1.15,2013-03-27 10:47:00,
2013-03-27 04:57:00,28.3,18.0,29.94,West,271,5.0,10.0,65,0.00,,,0.00,Wunderground v.1.15,2013-03-27 10:57:00,
2013-03-27 05:02:00,28.4,18.1,29.94,West,264,6.0,10.0,65,0.00,,,0.00,Wunderground v.1.15,2013-03-27 11:02:00,
2013-03-27 05:07:00,28.1,17.8,29.94,WNW,285,6.0,10.0,65,0.00,,,0.00,Wunderground v.1.15,2013-03-27 11:07:00,
2013-03-27 05:12:00,28.0,17.7,29.94,WSW,255,6.0,10.0,65,0.00,,,0.00,Wunderground v.1.15,2013-03-27 11:12:00,
2013-03-27 05:17:00,28.0,18.1,29.94,West,276,6.0,10.0,66,0.00,,,0.00,Wunderground v.1.15,2013-03-27 11:17:00,
2013-03-27 05:22:00,27.9,18.0,29.94,WNW,294,5.0,10.0,66,0.00,,,0.00,Wunderground v.1.15,2013-03-27 11:22:00,
2013-03-27 05:32:00,28.1,17.8,29.94,WSW,249,5.0,5.0,65,0.00,,,0.00,Wunderground v.1.15,2013-03-27 11:32:00,
2013-03-27 05:37:00,28.0,18.1,29.94,West,274,5.0,10.0,66,0.00,,,0.00,Wunderground v.1.15,2013-03-27 11:37:00,
2013-03-27 05:47:00,27.8,17.9,29.94,WSW,243,5.0,10.0,66,0.00,,,0.00,Wunderground v.1.15,2013-03-27 11:47:00,
2013-03-27 05:52:00,28.0,18.1,29.94,West,273,5.0,10.0,66,0.00,,,0.00,Wunderground v.1.15,2013-03-27 11:52:00,
2013-03-27 05:57:00,27.7,17.8,29.94,West,280,5.0,10.0,66,0.00,,,0.00,Wunderground v.1.15,2013-03-27 11:57:00,
2013-03-27 06:02:00,27.7,17.8,29.95,WSW,244,5.0,5.0,66,0.00,,,0.00,Wunderground v.1.15,2013-03-27 12:02:00,
2013-03-27 06:07:00,27.6,17.7,29.95,WSW,254,5.0,7.0,66,0.00,,,0.00,Wunderground v.1.15,2013-03-27 12:07:00,
2013-03-27 06:12:00,27.6,18.1,29.95,WNW,284,5.0,5.0,67,0.00,,,0.00,Wunderground v.1.15,2013-03-27 12:12:00,
2013-03-27 06:17:00,27.7,17.8,29.95,WSW,243,5.0,10.0,66,0.00,,,0.00,Wunderground v.1.15,2013-03-27 12:17:00,
2013-03-27 06:27:00,27.5,17.6,29.95,West,281,5.0,10.0,66,0.00,,,0.00,Wunderground v.1.15,2013-03-27 12:27:00,
2013-03-27 06:32:00,27.3,17.8,29.95,SW,219,6.0,10.0,67,0.00,,,0.00,Wunderground v.1.15,2013-03-27 12:32:00,
2013-03-27 06:37:00,27.1,17.6,29.95,West,271,6.0,10.0,67,0.00,,,0.00,Wunderground v.1.15,2013-03-27 12:37:00,
2013-03-27 06:47:00,26.8,17.6,29.95,West,266,4.0,10.0,68,0.00,,,0.00,Wunderground v.1.15,2013-03-27 12:47:00,
2013-03-27 06:57:00,26.6,17.5,29.95,SW,233,4.0,10.0,68,0.00,,,0.00,Wunderground v.1.15,2013-03-27 12:57:00,
2013-03-27 07:12:00,26.8,17.6,29.95,West,260,5.0,5.0,68,0.00,,,0.00,Wunderground v.1.15,2013-03-27 13:12:00,
2013-03-27 07:17:00,26.9,17.7,29.95,SSW,204,5.0,10.0,68,0.00,,,0.00,Wunderground v.1.15,2013-03-27 13:17:00,
2013-03-27 07:22:00,26.9,17.7,29.95,WSW,248,4.0,10.0,68,0.00,,,0.00,Wunderground v.1.15,2013-03-27 13:22:00,
2013-03-27 07:27:00,27.0,17.8,29.95,WNW,295,5.0,10.0,68,0.00,,,0.00,Wunderground v.1.15,2013-03-27 13:27:00,
2013-03-27 07:32:00,26.7,17.6,29.95,West,276,6.0,6.0,68,0.00,,,0.00,Wunderground v.1.15,2013-03-27 13:32:00,
2013-03-27 07:42:00,26.7,17.6,29.95,SW,236,5.0,5.0,68,0.00,,,0.00,Wunderground v.1.15,2013-03-27 13:42:00,
2013-03-27 07:47:00,26.7,17.6,29.95,WSW,256,5.0,10.0,68,0.00,,,0.00,Wunderground v.1.15,2013-03-27 13:47:00,
2013-03-27 07:57:00,27.3,17.8,29.96,West,260,5.0,10.0,67,0.00,,,0.00,Wunderground v.1.15,2013-03-27 13:57:00,
2013-03-27 08:02:00,27.4,17.9,29.96,West,270,6.0,10.0,67,0.00,,,0.00,Wunderground v.1.15,2013-03-27 14:02:00,
2013-03-27 08:07:00,27.4,17.9,29.96,West,262,5.0,10.0,67,0.00,,,0.00,Wunderground v.1.15,2013-03-27 14:07:00,
2013-03-27 08:12:00,27.7,18.2,29.96,WNW,294,5.0,5.0,67,0.00,,,0.00,Wunderground v.1.15,2013-03-27 14:12:00,
2013-03-27 08:17:00,28.0,18.1,29.96,WNW,283,5.0,10.0,66,0.00,,,0.00,Wunderground v.1.15,2013-03-27 14:17:00,
2013-03-27 08:27:00,28.6,18.7,29.96,West,281,4.0,10.0,66,0.00,,,0.00,Wunderground v.1.15,2013-03-27 14:27:00,
2013-03-27 08:32:00,29.3,19.0,29.96,SW,224,5.0,5.0,65,0.00,,,0.00,Wunderground v.1.15,2013-03-27 14:32:00,
2013-03-27 08:37:00,29.8,19.1,29.96,West,263,5.0,10.0,64,0.00,,,0.00,Wunderground v.1.15,2013-03-27 14:37:00,
2013-03-27 08:47:00,30.8,19.3,29.96,WNW,288,4.0,10.0,62,0.00,,,0.00,Wunderground v.1.15,2013-03-27 14:47:00,
2013-03-27 08:52:00,31.2,19.3,29.96,West,274,4.0,4.0,61,0.00,,,0.00,Wunderground v.1.15,2013-03-27 14:52:00,
2013-03-27 08:57:00,31.7,19.4,29.96,WNW,295,4.0,10.0,60,0.00,,,0.00,Wunderground v.1.15,2013-03-27 14:57:00,
2013-03-27 09:02:00,32.2,19.9,29.96,West,276,3.0,10.0,60,0.00,,,0.00,Wunderground v.1.15,2013-03-27 15:02:00,
2013-03-27 09:12:00,32.9,20.1,29.96,WNW,302,3.0,3.0,59,0.00,,,0.00,Wunderground v.1.15,2013-03-27 15:12:00,
2013-03-27 09:17:00,33.1,20.3,29.96,West,281,3.0,10.0,59,0.00,,,0.00,Wunderground v.1.15,2013-03-27 15:17:00,
2013-03-27 09:22:00,33.5,20.7,29.96,WNW,300,3.0,3.0,59,0.00,,,0.00,Wunderground v.1.15,2013-03-27 15:22:00,
2013-03-27 09:27:00,34.0,20.8,29.96,West,275,2.0,10.0,58,0.00,,,0.00,Wunderground v.1.15,2013-03-27 15:27:00,
2013-03-27 09:32:00,34.8,21.1,29.96,South,188,2.0,2.0,57,0.00,,,0.00,Wunderground v.1.15,2013-03-27 15:32:00,
2013-03-27 09:42:00,36.0,20.9,29.96,NW,311,1.0,10.0,54,0.00,,,0.00,Wunderground v.1.15,2013-03-27 15:42:00,
2013-03-27 09:47:00,36.4,21.3,29.96,WNW,297,1.0,10.0,54,0.00,,,0.00,Wunderground v.1.15,2013-03-27 15:47:00,
2013-03-27 09:52:00,36.6,21.1,29.96,WNW,297,1.0,1.0,53,0.00,,,0.00,Wunderground v.1.15,2013-03-27 15:52:00,
2013-03-27 10:02:00,39.1,21.5,29.96,NE,52,0.0,10.0,49,0.00,,,0.00,Wunderground v.1.15,2013-03-27 16:02:00,
2013-03-27 10:07:00,39.9,21.3,29.96,ENE,58,0.0,10.0,47,0.00,,,0.00,Wunderground v.1.15,2013-03-27 16:07:00,
2013-03-27 10:12:00,40.2,21.6,29.96,NNW,348,0.0,10.0,47,0.00,,,0.00,Wunderground v.1.15,2013-03-27 16:12:00,
2013-03-27 10:17:00,40.7,21.0,29.95,ENE,70,0.0,10.0,45,0.00,,,0.00,Wunderground v.1.15,2013-03-27 16:17:00,
2013-03-27 10:27:00,41.8,21.5,29.95,ENE,57,1.0,10.0,44,0.00,,,0.00,Wunderground v.1.15,2013-03-27 16:27:00,
2013-03-27 10:32:00,41.8,21.5,29.95,NW,318,1.0,1.0,44,0.00,,,0.00,Wunderground v.1.15,2013-03-27 16:32:00,
2013-03-27 10:37:00,41.6,20.7,29.95,ENE,68,1.0,10.0,43,0.00,,,0.00,Wunderground v.1.15,2013-03-27 16:37:00,
2013-03-27 10:42:00,42.3,21.9,29.95,ENE,71,1.0,1.0,44,0.00,,,0.00,Wunderground v.1.15,2013-03-27 16:42:00,
2013-03-27 10:47:00,42.2,20.7,29.95,WNW,294,1.0,10.0,42,0.00,,,0.00,Wunderground v.1.15,2013-03-27 16:47:00,
2013-03-27 10:52:00,42.4,20.9,29.95,WNW,295,0.0,10.0,42,0.00,,,0.00,Wunderground v.1.15,2013-03-27 16:52:00,
2013-03-27 11:02:00,43.5,21.9,29.94,WSW,248,0.0,10.0,42,0.00,,,0.00,Wunderground v.1.15,2013-03-27 17:02:00,
2013-03-27 11:07:00,44.5,21.6,29.94,North,359,0.0,10.0,40,0.00,,,0.00,Wunderground v.1.15,2013-03-27 17:07:00,
2013-03-27 11:12:00,45.7,22.1,29.94,ENE,72,0.0,10.0,39,0.00,,,0.00,Wunderground v.1.15,2013-03-27 17:12:00,
2013-03-27 11:21:00,47.1,22.1,29.94,NE,46,1.0,10.0,37,0.00,,,0.00,Wunderground v.1.15,2013-03-27 17:21:00,
2013-03-27 11:27:00,46.9,22.0,29.94,NW,315,2.0,10.0,37,0.00,,,0.00,Wunderground v.1.15,2013-03-27 17:27:00,
2013-03-27 11:32:00,47.0,21.4,29.94,NNW,333,2.0,2.0,36,0.00,,,0.00,Wunderground v.1.15,2013-03-27 17:32:00,
2013-03-27 11:37:00,47.4,21.7,29.94,WNW,302,2.0,5.0,36,0.00,,,0.00,Wunderground v.1.15,2013-03-27 17:37:00,
2013-03-27 11:42:00,47.1,21.5,29.94,NNW,327,2.0,10.0,36,0.00,,,0.00,Wunderground v.1.15,2013-03-27 17:42:00,
2013-03-27 11:52:00,48.1,22.4,29.94,SSW,203,2.0,10.0,36,0.00,,,0.00,Wunderground v.1.15,2013-03-27 17:52:00,
2013-03-27 11:57:00,48.9,21.7,29.94,SSW,202,3.0,10.0,34,0.00,,,0.00,Wunderground v.1.15,2013-03-27 17:57:00,
2013-03-27 12:02:00,49.1,21.9,29.93,SW,215,5.0,5.0,34,0.00,,,0.00,Wunderground v.1.15,2013-03-27 18:02:00,
2013-03-27 12:07:00,49.2,22.0,29.93,SSW,205,5.0,6.0,34,0.00,,,0.00,Wunderground v.1.15,2013-03-27 18:07:00,
2013-03-27 12:12:00,49.7,21.7,29.93,South,179,3.0,10.0,33,0.00,,,0.00,Wunderground v.1.15,2013-03-27 18:12:00,
2013-03-27 12:22:00,50.2,22.2,29.92,ESE,114,5.0,10.0,33,0.00,,,0.00,Wunderground v.1.15,2013-03-27 18:22:00,
2013-03-27 12:27:00,50.5,23.1,29.92,SE,141,5.0,10.0,34,0.00,,,0.00,Wunderground v.1.15,2013-03-27 18:27:00,
2013-03-27 12:32:00,49.8,21.8,29.92,SE,142,6.0,10.0,33,0.00,,,0.00,Wunderground v.1.15,2013-03-27 18:32:00,
2013-03-27 12:37:00,50.3,23.0,29.92,SW,228,6.0,10.0,34,0.00,,,0.00,Wunderground v.1.15,2013-03-27 18:37:00,
2013-03-27 12:47:00,50.7,21.9,29.92,SSE,160,5.0,10.0,32,0.00,,,0.00,Wunderground v.1.15,2013-03-27 18:47:00,
2013-03-27 12:52:00,51.0,22.1,29.92,SSE,148,6.0,10.0,32,0.00,,,0.00,Wunderground v.1.15,2013-03-27 18:52:00,
2013-03-27 12:57:00,51.0,22.9,29.92,SE,131,6.0,10.0,33,0.00,,,0.00,Wunderground v.1.15,2013-03-27 18:57:00,
2013-03-27 13:07:00,50.5,21.7,29.92,ESE,117,8.0,10.0,32,0.00,,,0.00,Wunderground v.1.15,2013-03-27 19:07:00,
2013-03-27 13:12:00,50.4,21.6,29.92,SE,139,8.0,8.0,32,0.00,,,0.00,Wunderground v.1.15,2013-03-27 19:12:00,
2013-03-27 13:17:00,50.6,21.8,29.92,SSE,151,8.0,10.0,32,0.00,,,0.00,Wunderground v.1.15,2013-03-27 19:17:00,
2013-03-27 13:27:00,51.0,22.1,29.92,SE,141,8.0,14.0,32,0.00,,,0.00,Wunderground v.1.15,2013-03-27 19:27:00,
2013-03-27 13:32:00,51.3,22.4,29.91,SE,128,8.0,10.0,32,0.00,,,0.00,Wunderground v.1.15,2013-03-27 19:32:00,
2013-03-27 13:42:00,50.9,22.1,29.91,SE,129,9.0,10.0,32,0.00,,,0.00,Wunderground v.1.15,2013-03-27 19:42:00,
2013-03-27 13:47:00,51.2,21.6,29.91,SSW,202,8.0,10.0,31,0.00,,,0.00,Wunderground v.1.15,2013-03-27 19:47:00,
2013-03-27 13:52:00,51.6,23.4,29.91,South,173,6.0,10.0,33,0.00,,,0.00,Wunderground v.1.15,2013-03-27 19:52:00,
2013-03-27 13:57:00,52.2,23.2,29.91,SSW,204,5.0,10.0,32,0.00,,,0.00,Wunderground v.1.15,2013-03-27 19:57:00,
2013-03-27 14:02:00,52.6,22.8,29.91,SE,142,5.0,10.0,31,0.00,,,0.00,Wunderground v.1.15,2013-03-27 20:02:00,
2013-03-27 14:07:00,52.3,22.5,29.91,SSE,149,6.0,10.0,31,0.00,,,0.00,Wunderground v.1.15,2013-03-27 20:07:00,
2013-03-27 14:12:00,52.8,23.7,29.91,South,186,6.0,10.0,32,0.00,,,0.00,Wunderground v.1.15,2013-03-27 20:12:00,
2013-03-27 14:22:00,53.1,23.2,29.91,South,190,6.0,6.0,31,0.00,,,0.00,Wunderground v.1.15,2013-03-27 20:22:00,
2013-03-27 14:32:00,52.3,24.7,29.91,SSW,207,6.0,10.0,34,0.00,,,0.00,Wunderground v.1.15,2013-03-27 20:32:00,
2013-03-27 14:37:00,51.7,24.2,29.91,SE,142,6.0,10.0,34,0.00,,,0.00,Wunderground v.1.15,2013-03-27 20:37:00,
2013-03-27 14:47:00,50.5,25.8,29.91,WNW,283,6.0,10.0,38,0.00,,,0.00,Wunderground v.1.15,2013-03-27 20:47:00,
2013-03-27 14:52:00,48.7,27.7,29.92,WNW,290,8.0,11.0,44,0.00,,,0.00,Wunderground v.1.15,2013-03-27 20:52:00,
2013-03-27 14:57:00,47.5,26.6,29.91,WSW,239,6.0,11.0,44,0.00,,,0.00,Wunderground v.1.15,2013-03-27 20:57:00,
2013-03-27 15:02:00,47.7,25.1,29.91,ESE,108,4.0,10.0,41,0.00,,,0.00,Wunderground v.1.15,2013-03-27 21:02:00,
2013-03-27 15:07:00,49.0,24.5,29.90,WSW,240,3.0,10.0,38,0.00,,,0.00,Wunderground v.1.15,2013-03-27 21:07:00,
2013-03-27 15:12:00,49.4,24.8,29.90,SSW,208,2.0,2.0,38,0.00,,,0.00,Wunderground v.1.15,2013-03-27 21:12:00,
2013-03-27 15:17:00,49.7,25.1,29.90,SW,236,1.0,10.0,38,0.00,,,0.00,Wunderground v.1.15,2013-03-27 21:17:00,
2013-03-27 15:27:00,49.3,25.4,29.90,South,172,4.0,10.0,39,0.00,,,0.00,Wunderground v.1.15,2013-03-27 21:27:00,
2013-03-27 15:32:00,49.1,25.8,29.91,SW,219,5.0,10.0,40,0.00,,,0.00,Wunderground v.1.15,2013-03-27 21:32:00,
2013-03-27 15:37:00,48.6,26.5,29.91,SSW,201,7.0,10.0,42,0.00,,,0.00,Wunderground v.1.15,2013-03-27 21:37:00,
2013-03-27 15:42:00,49.1,25.8,29.90,South,176,8.0,10.0,40,0.00,,,0.00,Wunderground v.1.15,2013-03-27 21:42:00,
2013-03-27 15:52:00,50.3,22.3,29.90,West,276,4.0,10.0,33,0.00,,,0.00,Wunderground v.1.15,2013-03-27 21:52:00,
2013-03-27 15:57:00,50.6,23.2,29.90,SSW,198,5.0,10.0,34,0.00,,,0.00,Wunderground v.1.15,2013-03-27 21:57:00,
2013-03-27 16:07:00,51.0,23.6,29.90,SSW,198,6.0,10.0,34,0.00,,,0.00,Wunderground v.1.15,2013-03-27 22:07:00,
2013-03-27 16:12:00,51.5,22.6,29.89,SW,221,5.0,5.0,32,0.00,,,0.00,Wunderground v.1.15,2013-03-27 22:12:00,
2013-03-27 16:17:00,51.7,22.0,29.89,WNW,300,4.0,10.0,31,0.00,,,0.00,Wunderground v.1.15,2013-03-27 22:17:00,
2013-03-27 16:22:00,51.9,22.9,29.89,WNW,292,4.0,10.0,32,0.00,,,0.00,Wunderground v.1.15,2013-03-27 22:22:00,
2013-03-27 16:27:00,51.5,23.3,29.89,WNW,288,3.0,10.0,33,0.00,,,0.00,Wunderground v.1.15,2013-03-27 22:27:00,
2013-03-27 16:37:00,50.9,23.5,29.89,SW,236,4.0,10.0,34,0.00,,,0.00,Wunderground v.1.15,2013-03-27 22:37:00,
2013-03-27 16:42:00,50.6,24.6,29.89,WSW,250,4.0,10.0,36,0.00,,,0.00,Wunderground v.1.15,2013-03-27 22:42:00,
2013-03-27 16:47:00,50.3,24.3,29.89,WNW,299,5.0,10.0,36,0.00,,,0.00,Wunderground v.1.15,2013-03-27 22:47:00,
2013-03-27 16:57:00,49.6,25.0,29.90,WSW,249,6.0,9.0,38,0.00,,,0.00,Wunderground v.1.15,2013-03-27 22:57:00,
2013-03-27 17:02:00,49.2,24.0,29.89,NW,307,6.0,10.0,37,0.00,,,0.00,Wunderground v.1.15,2013-03-27 23:02:00,
2013-03-27 17:07:00,49.1,23.9,29.89,WSW,240,5.0,10.0,37,0.00,,,0.00,Wunderground v.1.15,2013-03-27 23:07:00,
2013-03-27 17:17:00,49.6,22.3,29.89,WSW,246,5.0,10.0,34,0.00,,,0.00,Wunderground v.1.15,2013-03-27 23:17:00,
2013-03-27 17:22:00,49.9,22.6,29.89,NW,311,5.0,10.0,34,0.00,,,0.00,Wunderground v.1.15,2013-03-27 23:22:00,
2013-03-27 17:27:00,50.0,21.3,29.89,West,274,4.0,10.0,32,0.00,,,0.00,Wunderground v.1.15,2013-03-27 23:27:00,
2013-03-27 17:32:00,50.3,22.3,29.90,WSW,257,4.0,10.0,33,0.00,,,0.00,Wunderground v.1.15,2013-03-27 23:32:00,
2013-03-27 17:37:00,50.3,22.3,29.90,West,278,5.0,10.0,33,0.00,,,0.00,Wunderground v.1.15,2013-03-27 23:37:00,
2013-03-27 17:42:00,50.1,23.5,29.90,NW,319,7.0,10.0,35,0.00,,,0.00,Wunderground v.1.15,2013-03-27 23:42:00,
2013-03-27 17:52:00,48.9,25.0,29.90,NNW,347,8.0,10.0,39,0.00,,,0.00,Wunderground v.1.15,2013-03-27 23:52:00,
2013-03-27 17:57:00,48.7,25.4,29.90,West,259,8.0,10.0,40,0.00,,,0.00,Wunderground v.1.15,2013-03-27 23:57:00,
2013-03-27 18:02:00,48.8,26.1,29.90,WNW,295,6.0,10.0,41,0.00,,,0.00,Wunderground v.1.15,2013-03-28 00:02:00,
2013-03-27 18:07:00,48.7,26.0,29.90,WNW,288,5.0,10.0,41,0.00,,,0.00,Wunderground v.1.15,2013-03-28 00:07:00,
2013-03-27 18:12:00,48.5,25.8,29.90,WNW,293,6.0,10.0,41,0.00,,,0.00,Wunderground v.1.15,2013-03-28 00:12:00,
2013-03-27 18:22:00,48.3,26.2,29.91,NW,311,6.0,6.0,42,0.00,,,0.00,Wunderground v.1.15,2013-03-28 00:22:00,
2013-03-27 18:27:00,48.3,26.2,29.91,West,269,6.0,8.0,42,0.00,,,0.00,Wunderground v.1.15,2013-03-28 00:27:00,
2013-03-27 18:37:00,48.1,26.1,29.91,West,267,6.0,10.0,42,0.00,,,0.00,Wunderground v.1.15,2013-03-28 00:37:00,
2013-03-27 18:47:00,48.2,26.2,29.91,WSW,257,3.0,10.0,42,0.00,,,0.00,Wunderground v.1.15,2013-03-28 00:47:00,
2013-03-27 18:52:00,48.7,26.0,29.91,WNW,286,3.0,10.0,41,0.00,,,0.00,Wunderground v.1.15,2013-03-28 00:52:00,
2013-03-27 18:57:00,49.0,26.3,29.91,SW,215,3.0,10.0,41,0.00,,,0.00,Wunderground v.1.15,2013-03-28 00:57:00,
2013-03-27 19:02:00,49.0,26.3,29.91,West,281,3.0,10.0,41,0.00,,,0.00,Wunderground v.1.15,2013-03-28 01:02:00,
2013-03-27 19:07:00,48.8,26.7,29.92,WNW,302,5.0,11.0,42,0.00,,,0.00,Wunderground v.1.15,2013-03-28 01:07:00,
2013-03-27 19:12:00,47.9,27.6,29.92,WNW,291,6.0,12.0,45,0.00,,,0.00,Wunderground v.1.15,2013-03-28 01:12:00,
2013-03-27 19:22:00,46.3,27.7,29.92,WNW,294,8.0,8.0,48,0.00,,,0.00,Wunderground v.1.15,2013-03-28 01:22:00,
2013-03-27 19:27:00,46.0,27.9,29.92,WSW,250,7.0,10.0,49,0.00,,,0.00,Wunderground v.1.15,2013-03-28 01:27:00,
2013-03-27 19:32:00,45.7,28.1,29.93,WNW,287,5.0,5.0,50,0.00,,,0.00,Wunderground v.1.15,2013-03-28 01:32:00,
2013-03-27 19:37:00,45.4,27.8,29.93,WNW,288,3.0,10.0,50,0.00,,,0.00,Wunderground v.1.15,2013-03-28 01:37:00,
2013-03-27 19:42:00,45.1,28.0,29.93,West,260,3.0,3.0,51,0.00,,,0.00,Wunderground v.1.15,2013-03-28 01:42:00,
2013-03-27 19:47:00,44.9,27.8,29.93,WSW,253,3.0,4.0,51,0.00,,,0.00,Wunderground v.1.15,2013-03-28 01:47:00,
2013-03-27 19:57:00,44.6,28.0,29.93,SSW,209,3.0,10.0,52,0.00,,,0.00,Wunderground v.1.15,2013-03-28 01:57:00,
2013-03-27 20:02:00,44.4,27.9,29.93,SSW,211,2.0,2.0,52,0.00,,,0.00,Wunderground v.1.15,2013-03-28 02:02:00,
2013-03-27 20:12:00,44.2,27.7,29.93,West,275,3.0,10.0,52,0.00,,,0.00,Wunderground v.1.15,2013-03-28 02:12:00,
2013-03-27 20:17:00,44.1,28.0,29.93,WNW,288,3.0,10.0,53,0.00,,,0.00,Wunderground v.1.15,2013-03-28 02:17:00,
2013-03-27 20:22:00,44.0,28.0,29.93,NW,304,3.0,3.0,53,0.00,,,0.00,Wunderground v.1.15,2013-03-28 02:22:00,
2013-03-27 20:27:00,43.9,28.3,29.94,West,259,3.0,10.0,54,0.00,,,0.00,Wunderground v.1.15,2013-03-28 02:27:00,
2013-03-27 20:32:00,43.7,28.1,29.94,WSW,246,3.0,3.0,54,0.00,,,0.00,Wunderground v.1.15,2013-03-28 02:32:00,
2013-03-27 20:37:00,43.2,28.1,29.94,West,263,2.0,10.0,55,0.00,,,0.00,Wunderground v.1.15,2013-03-28 02:37:00,
2013-03-27 20:42:00,42.9,28.3,29.94,SW,225,3.0,3.0,56,0.00,,,0.00,Wunderground v.1.15,2013-03-28 02:42:00,
2013-03-27 20:52:00,42.7,28.1,29.95,WSW,242,3.0,3.0,56,0.00,,,0.00,Wunderground v.1.15,2013-03-28 02:52:00,
2013-03-27 20:57:00,42.8,28.2,29.95,SW,234,3.0,10.0,56,0.00,,,0.00,Wunderground v.1.15,2013-03-28 02:57:00,
2013-03-27 21:02:00,42.7,27.6,29.95,WNW,283,2.0,2.0,55,0.00,,,0.00,Wunderground v.1.15,2013-03-28 03:02:00,
2013-03-27 21:07:00,42.6,28.0,29.95,WSW,255,2.0,10.0,56,0.00,,,0.00,Wunderground v.1.15,2013-03-28 03:07:00,
2013-03-27 21:12:00,42.7,28.1,29.96,WNW,284,3.0,10.0,56,0.00,,,0.00,Wunderground v.1.15,2013-03-28 03:12:00,
2013-03-27 21:17:00,42.5,28.3,29.96,SW,227,3.0,10.0,57,0.00,,,0.00,Wunderground v.1.15,2013-03-28 03:17:00,
2013-03-27 21:27:00,41.9,29.0,29.96,WSW,249,3.0,5.0,60,0.00,,,0.00,Wunderground v.1.15,2013-03-28 03:27:00,
2013-03-27 21:32:00,41.7,28.8,29.96,West,269,3.0,10.0,60,0.00,,,0.00,Wunderground v.1.15,2013-03-28 03:32:00,
2013-03-27 21:37:00,41.8,29.3,29.97,SW,217,4.0,10.0,61,0.00,,,0.00,Wunderground v.1.15,2013-03-28 03:37:00,
2013-03-27 21:42:00,41.7,29.2,29.97,WSW,242,4.0,4.0,61,0.00,,,0.00,Wunderground v.1.15,2013-03-28 03:42:00,
2013-03-27 21:47:00,41.6,29.1,29.97,WSW,256,3.0,5.0,61,0.00,,,0.00,Wunderground v.1.15,2013-03-28 03:47:00,
2013-03-27 21:57:00,41.5,28.6,29.97,West,266,3.0,10.0,60,0.00,,,0.00,Wunderground v.1.15,2013-03-28 03:57:00,
2013-03-27 22:02:00,41.3,28.9,29.97,West,267,3.0,10.0,61,0.00,,,0.00,Wunderground v.1.15,2013-03-28 04:02:00,
2013-03-27 22:07:00,41.2,28.8,29.97,SW,235,3.0,10.0,61,0.00,,,0.00,Wunderground v.1.15,2013-03-28 04:07:00,
2013-03-27 22:12:00,41.1,28.7,29.98,WNW,290,2.0,10.0,61,0.00,,,0.00,Wunderground v.1.15,2013-03-28 04:12:00,
2013-03-27 22:17:00,41.1,29.1,29.97,West,274,2.0,10.0,62,0.00,,,0.00,Wunderground v.1.15,2013-03-28 04:17:00,
2013-03-27 22:22:00,41.0,29.0,29.98,WSW,252,3.0,10.0,62,0.00,,,0.00,Wunderground v.1.15,2013-03-28 04:22:00,
2013-03-27 22:32:00,40.9,28.9,29.98,WSW,246,2.0,2.0,62,0.00,,,0.00,Wunderground v.1.15,2013-03-28 04:32:00,
2013-03-27 22:37:00,40.7,28.7,29.98,WSW,240,1.0,10.0,62,0.00,,,0.00,Wunderground v.1.15,2013-03-28 04:37:00,
2013-03-27 22:42:00,40.5,28.9,29.98,ESE,111,1.0,10.0,63,0.00,,,0.00,Wunderground v.1.15,2013-03-28 04:42:00,
2013-03-27 22:52:00,40.3,30.2,29.99,ENE,73,2.0,10.0,67,0.00,,,0.00,Wunderground v.1.15,2013-03-28 04:52:00,
2013-03-27 22:57:00,40.1,30.4,29.99,East,98,1.0,10.0,68,0.00,,,0.00,Wunderground v.1.15,2013-03-28 04:57:00,
2013-03-27 23:02:00,39.9,30.2,29.99,ESE,115,1.0,1.0,68,0.00,,,0.00,Wunderground v.1.15,2013-03-28 05:02:00,
2013-03-27 23:12:00,38.9,29.2,29.99,South,174,1.0,1.0,68,0.00,,,0.00,Wunderground v.1.15,2013-03-28 05:12:00,
2013-03-27 23:22:00,37.9,29.3,29.99,SSE,160,0.0,10.0,71,0.00,,,0.00,Wunderground v.1.15,2013-03-28 05:22:00,
2013-03-27 23:27:00,37.5,29.3,29.99,SE,145,0.0,10.0,72,0.00,,,0.00,Wunderground v.1.15,2013-03-28 05:27:00,
2013-03-27 23:32:00,37.1,29.2,29.99,SE,145,0.0,10.0,73,0.00,,,0.00,Wunderground v.1.15,2013-03-28 05:32:00,
2013-03-27 23:42:00,36.7,28.9,29.99,West,274,0.0,10.0,73,0.00,,,0.00,Wunderground v.1.15,2013-03-28 05:42:00,
2013-03-27 23:47:00,36.4,28.6,29.99,West,267,1.0,10.0,73,0.00,,,0.00,Wunderground v.1.15,2013-03-28 05:47:00,
2013-03-27 23:52:00,35.9,28.1,29.99,WSW,255,2.0,10.0,73,0.00,,,0.00,Wunderground v.1.15,2013-03-28 05:52:00,
2013-03-27 23:57:00,35.7,27.9,29.99,West,267,2.0,10.0,73,0.00,,,0.00,Wunderground v.1.15,2013-03-28 05:57:00,